GW1554 Weather Reports


Display with metric or nautical units.
time (UTC)temp
F
wind
direction
speed
MPH
gust
MPH
rain 1hr
in
rain 24hr
in
rain mn
in
humidity
%
barometer
mb
20260505021533 54 39 2.0 7.0 0.20 0.79 0.55 95 1012.5
20260505020031 54 56 0.0 8.0 0.28 0.79 0.55 94 1013.0
20260505014530 54 17 0.0 2.0 0.31 0.78 0.54 96 1013.1
20260505013026 54 318 0.0 2.0 0.27 0.71 0.47 95 1013.5
20260505011544 54 338 0.0 5.0 0.18 0.57 0.35 94 1013.9
20260505010022 54 323 0.0 6.0 0.15 0.50 0.26 92 1013.8
20260505004522 55 29 0.0 6.0 0.14 0.46 0.23 92 1013.9
20260505003020 54 25 2.0 11.0 0.15 0.44 0.20 93 1013.9
20260505001518 54 28 3.0 6.0 0.14 0.40 0.17 94 1014.3
20260505000015 54 68 0.0 0.0 0.09 0.35 0.11 93 1014.6
20260504234514 55 56 2.0 5.0 0.09 0.32 0.09 92 1014.4
20260504233011 55 315 0.0 0.0 0.06 0.28 0.06 90 1014.7
20260504231509 56 72 1.0 5.0 0.02 0.26 0.02 87 1014.8
20260504230006 56 46 4.0 10.0 0.02 0.25 0.02 85 1014.8
20260504224510 57 89 0.0 10.0 0.00 0.24 0.00 83 1014.9
20260504223002 57 26 4.0 9.0 0.00 0.24 0.00 83 1015.0
20260504221558 56 41 3.0 11.0 0.00 0.24 0.00 85 1015.4
20260504220055 56 23 3.0 9.0 0.00 0.24 0.00 87 1015.6
20260504214600 56 56 3.0 7.0 0.01 0.24 0.24 89 1015.7
20260504213053 55 37 1.0 3.0 0.01 0.24 0.24 92 1016.3
20260504211550 55 48 0.0 2.0 0.02 0.24 0.24 92 1016.5
20260504210050 55 34 1.0 4.0 0.02 0.24 0.24 93 1016.6
20260504204548 55 84 2.0 5.0 0.02 0.23 0.23 94 1016.6
20260504203050 55 1 0.0 2.0 0.02 0.23 0.23 94 1016.9
20260504201546 55 282 0.0 2.0 0.04 0.21 0.21 94 1017.0
20260504200047 55 354 0.0 0.0 0.06 0.21 0.21 94 1016.7
20260504194551 55 21 0.0 6.0 0.06 0.21 0.21 94 1016.6
20260504193044 55 352 0.0 3.0 0.06 0.20 0.20 94 1016.8
20260504191554 56 278 0.0 0.0 0.04 0.17 0.17 94 1016.8
20260504190043 56 86 0.0 0.0 0.08 0.16 0.16 93 1016.7
20260504184541 57 63 0.0 0.0 0.13 0.15 0.15 95 1016.5
20260504183041 57 18 0.0 4.0 0.13 0.15 0.15 95 1016.4
20260504181539 57 281 0.0 1.0 0.12 0.13 0.13 94 1016.5
20260504180039 57 14 0.0 4.0 0.06 0.08 0.08 94 1016.3
20260504174536 57 267 1.0 3.0 0.01 0.02 0.02 93 1016.6
20260504173035 58 218 0.0 1.0 0.01 0.02 0.02 92 1016.7
20260504171545 58 134 0.0 0.0 0.02 0.02 0.02 91 1016.6
20260504090108 61 12 8.0 15.0 0.00 0.00 0.00 57 1018.1
20260504081551 59 346 8.0 14.0 0.00 0.00 0.00 67 1018.5
20260504050018 56 35 0.0 2.0 0.00 0.00 0.00 81 1017.8
20260504044520 56 321 0.0 4.0 0.00 0.00 0.00 82 1017.8
20260504043023 56 303 0.0 2.0 0.00 0.00 0.00 84 1018.0
20260504041521 56 302 0.0 0.0 0.00 0.00 0.00 85 1018.1
20260504040018 56 271 0.0 2.0 0.00 0.00 0.00 85 1018.3
20260504034515 56 257 0.0 0.0 0.00 0.00 0.00 85 1018.3
20260504033015 56 288 0.0 2.0 0.00 0.00 0.00 85 1018.1
20260504031514 56 288 0.0 0.0 0.00 0.00 0.00 86 1018.0
20260504030016 56 79 0.0 2.0 0.00 0.00 0.00 84 1017.9
20260504024514 57 66 0.0 10.0 0.00 0.00 0.00 78 1017.8
20260504023012 56 328 1.0 2.0 0.00 0.00 0.00 84 1017.9